Location: Antoign�
(47.0844°N, 0.1131°W)
Time: 22:30:51
(UTC+00:00)

SL-08 RB Rocket - Pass Details

Date: 03 March 2021
Orbit: 647 x 683 km, 97.8° (Epoch: 14 April)

Event Time Altitude Azimuth Distance (km) Brightness Sun altitude
Rises 18:50:31 0° 156° (SSE) 2,965 6.8 -11.3°
Reaches altitude 10° 18:52:44 10° 153° (SSE) 2,063 6.0 -11.6°
Maximum altitude 18:57:10 63° 73° (ENE) 741 3.7 -12.4°
Drops below altitude 10° 19:01:42 10° 353° (N) 2,101 6.4 -13.2°
Sets 19:03:58 0° 350° (N) 3,025 7.3 -13.6°
